Regional Weather Roundup
Issued by NWS Mobile, AL

Current Version | Previous Version | Text Only | Print | Product List | Glossary On
Versions: 1 2 3 4 5 6 7 8 9 10 11 12 13 14 15 16 17 18 19 20 21 22 23 24 25 26 27 28 29 30 31 32 33 34 35 36 37 38 39 40 41 42 43 44 45 46 47 48 49 50
127
ASUS44 KMOB 230012
RWRMOB
REGIONAL WEATHER ROUNDUP
NATIONAL WEATHER SERVICE MOBILE AL
600 PM CST WED NOV 22 2017

NOTE: "FAIR" INDICATES FEW OR NO CLOUDS BELOW 12,000 FEET WITH NO
      SIGNIFICANT WEATHER AND/OR OBSTRUCTIONS TO VISIBILITY.

  * THESE STATIONS ARE PART OF THE UNIVERSITY OF SOUTH ALABAMA
    MESONET AND ARE NOT UNDER NWS OR FAA QUALITY CONTROL.

ALZ061>064-230100-
COASTAL ALABAMA

CITY           SKY/WX    TMP DP  RH WIND       PRES   REMARKS
MOBILE REG APT CLOUDY    58  42  55 N9        30.09R
6HR MIN TEMP:  58; 6HR MAX TEMP:  65;

BROOKLEY FIELD PTCLDY    60  44  55 N13       30.09R
6HR MIN TEMP:  60; 6HR MAX TEMP:  66;

USA CAMPUS*    NOT AVBL
DOG RIVER*     NOT AVBL


CITY           SKY/WX    TMP DP  RH WIND       PRES   REMARKS
GULF SHORES    CLOUDY    58  43  57 N3        30.07R

$$

ALZ051>060-230100-
INTERIOR SOUTHWEST AND SOUTH CENTRAL ALABAMA

CITY           SKY/WX    TMP DP  RH WIND       PRES   REMARKS
GREENVILLE     PTCLDY    56  39  53 N6        30.08R
6HR MIN TEMP:  56; 6HR MAX TEMP:  65;

EVERGREEN      PTCLDY    55  44  66 N5        30.09R
6HR MIN TEMP:  55; 6HR MAX TEMP:  65;

ATMORE*        NOT AVBL
ANDALUSIA/OPP  PTCLDY    58  43  57 N5        30.07R
6HR MIN TEMP:  58; 6HR MAX TEMP:  72;

ANDALUSIA*       N/A     55  43  62 N6        30.07R
FLORALA APT    MOCLDY    58  43  57 N7        30.09R
6HR MIN TEMP:  58; 6HR MAX TEMP:  70;

FLORALA*         N/A     57  45  62 CALM      30.77R

$$

FLZ001>006-230100-
WESTERN FLORIDA PANHANDLE

CITY           SKY/WX    TMP DP  RH WIND       PRES   REMARKS
PENSACOLA      CLOUDY    61  43  51 N10       30.06R
6HR MIN TEMP:  61; 6HR MAX TEMP:  69;

NAS PENSACOLA  CLOUDY    60  42  51 N10       30.05R
6HR MIN TEMP:  60; 6HR MAX TEMP:  69;

MILTON         CLOUDY    57  45  64 VRB7      30.07R
6HR MIN TEMP:  57; 6HR MAX TEMP:  67;

WHTNG S FIELD  CLOUDY    61  42  49 N12       30.07R
6HR MIN TEMP:  61; 6HR MAX TEMP:  71;



CITY           SKY/WX    TMP DP  RH WIND       PRES   REMARKS
JAY*             N/A     55  43  62 N2        30.09R
DUKE FIELD     MOCLDY    61  41  48 N12       30.05R
CRESTVIEW      MOCLDY    60  42  51 VRB7      30.07R
6HR MIN TEMP:  60; 6HR MAX TEMP:  71;

VALPARAISO     MOCLDY    62  42  47 N12       30.03R
6HR MIN TEMP:  62; 6HR MAX TEMP:  70;

DESTIN         CLOUDY    65  46  50 N15       30.03R
6HR MIN TEMP:  65; 6HR MAX TEMP:  72;


$$

MSZ076-079-230100-
INTERIOR SOUTHEAST MISSISSIPPI

CITY           SKY/WX    TMP DP  RH WIND       PRES   REMARKS
LEAKESVILLE*     N/A     54  43  66 NW2       30.12S
AGRICOLA*        N/A     55  45  67 N2        30.09S

$$

MARINE OBSERVATIONS

STATION/POSITION TIME  TEMP    WIND        PRES    WAVE
                       AIR SEA DIR/SP/G            HT/PER
                 (UTC) (F)     (DEG/KT/KT) (MB)    (FT/S)
PASCAGOULA       2348   60     360/ 14/ 18 1018.4R
PETIT BOIS ISLND 2348   61      10/ 16/ 19 1019.1R
GRAND BAY        2245   61      10/  9     1018.0R
KATRINA CUT      2330   61     360/ 16     1018.3R
CEDAR POINT      2330   60     360/ 10     1017.6R
E DAUPHIN ISLAND 2300   62      10/ 19/ 20 1017.2R
MIDDLE BAY LIGHT 2330   61      10/ 20     1017.6R
USCG MOBILE BAY  2348   59 65  360/ 10/ 16 1018.6R
STATE DOCKS      2348   60 66              1018.5R
MEAHER PARK      2330   59     350/  4     1018.0S
WEEKS BAY        2245   61                 1017.0S
FORT MORGAN      2348   62      30/ 20/ 25   N/A
12 S ORANGE BCH  NOT AVBL
PENSACOLA BAY    2348   61 63              1017.8R
64 S DAUPHIN ISL 2350   68 78   20/ 17/ 23 1016.5R   5/ 6
67 S FORT MORGAN 2330   68      30/ 19     1015.6R

$$

SELECTED LOCATIONS ACROSS THE REGION

CITY           SKY/WX    TMP DP  RH WIND       PRES   REMARKS
NEW ORLEANS    PTCLDY    63  49  60 N12G20    30.11R
GULFPORT       PTCLDY    60  44  55 N8        30.09R
PASCAGOULA AP  CLOUDY    59  42  53 N13       30.08R
PASCAGOULA*      N/A     59  45  58 N10         N/A
HATTIESBURG    CLEAR     56  42  59 N5        30.13S
LAUREL         CLEAR     47  41  80 N3        30.14R
MERIDIAN       CLEAR     47  35  63 N7        30.16R
JACKSON        CLEAR     51  31  46 NW9       30.18R
MONTGOMERY     PTCLDY    56  39  53 NW8       30.09S
TROY           CLOUDY    54  44  69 N3        30.08R
ASHFORD*         N/A     55  43  62 N6        30.07R
DOTHAN         CLOUDY    60  46  59 N8        30.08R
PANAMA CITY    CLOUDY    65  56  72 NW7       30.01R

$$





USA.gov is the U.S. government's official web portal to all federal, state and local government web resources and services.